Change the Weather History Date:

Wednesday, July 31, 2013

  Actual Average Record
Temperature  
Mean Temperature 81 °F 78 °F  
Max Temperature 93 °F 91 °F 105 °F (1934)
Min Temperature 68 °F 65 °F 54 °F (1971)
Degree Days  
Heating Degree Days 0 0  
Month to date heating degree days 0 0  
Since 1 June heating degree days 0 7  
Since 1 July heating degree days 0 0  
Cooling Degree Days 16 13  
Month to date cooling degree days 408 412  
Year to date cooling degree days 1047 825  
Since 1 June cooling degree days 799 700  
Growing Degree Days 30 (Base 50)    
Moisture  
Dew Point 65 °F    
Average Humidity 63    
Maximum Humidity 93    
Minimum Humidity 32    
Precipitation  
Precipitation T in 0.10 in 1.35 in (1908)
Month to date precipitation 1.86 2.84  
Year to date precipitation 10.95 12.36  
Snow  
Snow 0.00 in 0.00 in T in (1999)
Month to date snowfall 0.0 0.0  
Since 1 June snowfall 0.0 0.0  
Since 1 July snowfall 0.0 0.0  
Snow Depth 0.00 in    
Sea Level Pressure  
Sea Level Pressure 30.07 in    
Wind  
Wind Speed 9 mph (ESE)    
Max Wind Speed 16 mph    
Max Gust Speed 20 mph    
Visibility 8 miles    
Events Rain    
T = Trace of Precipitation, MM = Missing Value Source: NWS Daily Summary

Daily Weather History Graph

Daily Weather History Graph

Search for Another Location

Airport or City:

Trip Planner

Search our weather history database for the weather conditions in past years. The results will help you decide how hot, cold, wet, or windy it might be!

Date:

Astronomy

Jul. 31, 2013 Rise Set
Actual Time 6:55 AM CDT 8:50 PM CDT
Civil Twilight 6:27 AM CDT 9:18 PM CDT
Nautical Twilight 5:53 AM CDT 9:52 PM CDT
Astronomical Twilight 5:17 AM CDT 10:28 PM CDT
Moon 1:51 AM CDT (7/31) 4:08 PM CDT (7/31)
Length of Visible Light 14h 51m
Length of Day
13h 55m
Waning Crescent, 31% of the Moon is Illuminated
Jul 31
Waning Crescent
Aug 6
New
Aug 14
First Quarter
Aug 20
Full
Aug 28
Last Quarter

Hourly Weather History & Observations

Time (CDT) Temp. Heat Index Dew Point Humidity Pressure Visibility Wind Dir Wind Speed Gust Speed Precip Events Conditions
12:53 AM 73.0 °F - 66.9 °F 81% 30.03 in 10.0 mi ESE 9.2 mph - N/A   Clear
2:53 AM 70.0 °F - 66.9 °F 90% 30.04 in 10.0 mi SE 5.8 mph - N/A   Clear
3:53 AM 69.1 °F - 66.9 °F 93% 30.03 in 10.0 mi ESE 5.8 mph - N/A   Clear
4:53 AM 69.1 °F - 66.9 °F 93% 30.03 in 6.0 mi SE 5.8 mph - N/A   Clear
5:53 AM 68.0 °F - 66.9 °F 96% 30.04 in 4.0 mi ESE 6.9 mph - N/A   Clear
6:30 AM 69.8 °F - 66.2 °F 88% 30.22 in 0.5 mi East 6.9 mph - N/A   Clear
6:53 AM 68.0 °F - 66.9 °F 96% 30.07 in 1.5 mi ESE 6.9 mph - N/A   Clear
7:02 AM 68.0 °F - 66.2 °F 94% 30.23 in 2.0 mi East 6.9 mph - N/A   Clear
7:20 AM 69.8 °F - 66.2 °F 88% 30.24 in 6.0 mi East 5.8 mph - N/A   Clear
7:53 AM 70.0 °F - 66.9 °F 90% 30.08 in 6.0 mi ESE 6.9 mph - N/A   Clear
8:53 AM 73.0 °F - 68.0 °F 84% 30.09 in 10.0 mi ESE 10.4 mph - N/A   Clear
9:17 AM 75.2 °F - 68.0 °F 78% 30.25 in 10.0 mi SE 10.4 mph - N/A   Clear
9:53 AM 78.1 °F - 69.1 °F 74% 30.09 in 10.0 mi ESE 10.4 mph - N/A   Clear
10:53 AM 82.0 °F 85.5 °F 69.1 °F 65% 30.10 in 10.0 mi ESE 8.1 mph - N/A   Clear
11:53 AM 82.9 °F 86.5 °F 69.1 °F 63% 30.11 in 10.0 mi East 6.9 mph - N/A   Partly Cloudy
12:53 PM 84.9 °F 88.8 °F 69.1 °F 59% 30.09 in 10.0 mi SSE 6.9 mph - N/A   Scattered Clouds
1:53 PM 84.0 °F 87.0 °F 68.0 °F 58% 30.08 in 10.0 mi SE 8.1 mph - N/A   Partly Cloudy
2:53 PM 88.0 °F 89.6 °F 64.9 °F 46% 30.05 in 10.0 mi SE 10.4 mph 16.1 mph N/A   Clear
3:53 PM 90.0 °F 90.3 °F 62.1 °F 39% 30.01 in 10.0 mi ESE 9.2 mph 19.6 mph N/A   Clear
4:53 PM 89.1 °F 88.8 °F 60.1 °F 38% 30.00 in 10.0 mi SE 13.8 mph - N/A   Clear
5:53 PM 89.1 °F 87.3 °F 55.9 °F 32% 30.00 in 10.0 mi East 12.7 mph - N/A   Clear
6:53 PM 87.1 °F 86.5 °F 59.0 °F 39% 30.00 in 10.0 mi ESE 12.7 mph - N/A   Clear
7:53 PM 84.9 °F 84.2 °F 57.9 °F 40% 30.01 in 10.0 mi ESE 12.7 mph - N/A   Clear
8:53 PM 82.9 °F 82.6 °F 57.9 °F 42% 30.01 in 10.0 mi ESE 12.7 mph - N/A   Clear
9:53 PM 81.0 °F 81.7 °F 61.0 °F 50% 30.03 in 10.0 mi ESE 12.7 mph - N/A   Clear
10:53 PM 79.0 °F - 61.0 °F 54% 30.06 in 10.0 mi West 9.2 mph - N/A   Mostly Cloudy
11:53 PM 78.1 °F - 62.1 °F 58% 30.07 in 10.0 mi ESE 9.2 mph - 0.00 in Rain Light Rain